Location: Plymouth Junction
(43.2275°N, 93.1308°W)
Time: 08:14:15
(UTC+00:00)

Tiangong - Visible Passes

Search period start: 11 October 2024 00:00
Search period end: 21 October 2024 00:00
Orbit: 372 x 377 km, 41.5° (Epoch: 10 October)

Date Brightness Start Highest point End Pass type
(mag) Time Alt. Az. Time Alt. Az. Time Alt. Az.
16 Oct 0.6 11:53:39 10° SSW 11:55:43 16° SSE 11:57:46 10° ESE visible
18 Oct -0.1 11:23:05 10° SSW 11:25:36 23° SSE 11:28:08 10° ESE visible
19 Oct 0.6 10:22:54 14° SE 10:22:54 14° SE 10:24:13 10° ESE visible
19 Oct -1.3 11:55:36 10° WSW 11:58:34 44° SSE 12:01:33 10° E visible
20 Oct -0.9 10:54:43 29° S 10:55:14 31° SSE 10:58:02 10° E visible
